Regional Weather Roundup
Issued by NWS

Home | Current Version | Previous Version | Graphics & Text | Print | Product List | Glossary On
Versions: 1 2 3 4 5 6 7 8 9 10 11 12 13 14 15 16 17 18 19 20 21 22 23 24 25 26 27 28 29 30 31 32 33 34 35 36 37 38 39 40 41 42 43 44 45 46 47 48 49 50
083
ASUS45 KSLC 241610
RWRUT

UTAH REGIONAL WEATHER ROUNDUP
NATIONAL WEATHER SERVICE SALT LAKE CITY UT
1000 AM MDT WED MAY 24 2017

UTZ001>011-023>025-241700-

NORTHERN UTAH

CITY           SKY/WX    TMP DP  RH WIND       PRES   REMARKS
BRIGHAM CITY   CLOUDY    72  38  29 SW10      29.82F
DUGWAY         MOSUNNY   78  30  17 S8        29.84F
HILL AFB       PTSUNNY   70  41  35 S9        29.84F
LOGAN            N/A     67  45  45 CALM      29.81F
OGDEN          PTSUNNY   70  40  33 S6        29.83S
SALT LAKE CITY   N/A     77  38  24 S12G20    29.81F
TOOELE VALLEY    N/A     77  41  27 S18       29.82F
WENDOVER         N/A     80  31  16 W14       29.82F
HEBER CITY       N/A     59  37  44 CALM      29.91F

$$

UTZ011>015-024>027-241700-

CENTRAL/NORTHEAST UTAH

CITY           SKY/WX    TMP DP  RH WIND       PRES   REMARKS
PROVO AIRPORT  SUNNY     70  43  37 E7        29.89F
MOAB/CANYONLAN   N/A     71  32  23 E7        29.90F
DELTA            N/A     70  32  24 S6        29.91S
PRICE            N/A     65  32  29 S6        29.96F
ROOSEVELT        N/A     63  37  39 E6        29.93F
VERNAL           N/A     64  37  36 VRB3      29.92F

$$

UTZ013>016-019>022-027-241700-

SOUTHERN UTAH

CITY           SKY/WX    TMP DP  RH WIND       PRES   REMARKS
BRYCE CANYON     N/A     70  28  21 W17       30.11F
CEDAR CITY       N/A     79  28  15 SW13      29.97F
MILFORD          N/A     73  31  21 S17       29.92F
ST GEORGE        N/A     73  35  25 CALM      29.87F
HANKSVILLE       N/A     70  30  23 CALM      29.92F
BLANDING         N/A     67  31  25 S3        30.09F

$$

REGIONAL REPORTS     COLORADO/ARIZONA

CITY           SKY/WX    TMP DP  RH WIND       PRES   REMARKS
CRAIG, CO        N/A     61  36  39 CALM      29.94F
GRAND JUNCTION   N/A     66  32  28 SE8       29.94F
RIFLE, CO        N/A     59  31  34 NE3       29.98F
MONTROSE, CO     N/A     62  38  40 N5        30.01F
CORTEZ, CO       N/A     68  35  29 VRB3      30.03F
COLORADO CITY    N/A     81  30  16 CALM      30.00F
PAGE, AZ         N/A     71  36  27 N6        29.94S
GRAND CANYON     N/A     73  24  16 SW10      30.12F
KINGMAN, AZ      N/A     89  30  12 SW9       29.89S
FLAGSTAFF, AZ    N/A     72  21  14 W8        30.15F

$$

REGIONAL REPORTS    NEVADA/IDAHO/WYOMING

CITY           SKY/WX    TMP DP  RH WIND       PRES   REMARKS
LAS VEGAS, NV    N/A     90  25   9 NE5       29.76F
ELY, NY          N/A     69  31  24 S6        30.00F
ELKO, NV       PTSUNNY   66  38  35 SW9       29.91F
POCATELLO, ID    N/A     71  43  36 SW26G36   29.75F
BURLEY, ID       N/A     70  44  39 W21G32    29.78S
FORT BRIDGER,    N/A     69  31  24 W24G35    29.96F
EVANSTON, WY     N/A     64  37  36 SW20      29.95F
ROCK SPRINGS,    N/A     65  31  28 W22       29.89F
KEMMERER, WY     N/A     64  32  29 W18G24    29.93F

$$




USA.gov is the U.S. government's official web portal to all federal, state and local government web resources and services.